NKS832 KEWR-KDTW

Flight info

Callsign NKS832
Flight time 1h 18m
Altitude 36000
Route COATE Q436 REXXY JACCI FERRL2
Aircraft A321/M-SDE3FGHIRWY/LB1

Departure

Time 2026-05-06 08:35
Airport Newark Liberty International Airport (KEWR)

Arrival

Time 2026-05-06 09:53
Airport Detroit Metropolitan Wayne County Airport (KDTW)
Time Latitude Longitude Altitude Speed Heading
2026-05-06 08:16 40.68855 -74.17675 27 ft 0 kts 207°
2026-05-06 08:21 40.68865 -74.17668 27 ft 2 kts 211°
2026-05-06 08:22 40.68877 -74.17658 27 ft 2 kts 209°
2026-05-06 08:22 40.68889 -74.17650 27 ft 2 kts 209°
2026-05-06 08:22 40.68895 -74.17645 27 ft 0 kts 196°
2026-05-06 08:22 40.68900 -74.17645 27 ft 0 kts 149°
2026-05-06 08:23 40.68903 -74.17648 27 ft 0 kts 121°
2026-05-06 08:23 40.68905 -74.17651 27 ft 1 kts 110°
2026-05-06 08:23 40.68906 -74.17657 27 ft 0 kts 117°
2026-05-06 08:27 40.68906 -74.17655 27 ft 0 kts 117°
2026-05-06 08:27 40.68894 -74.17625 27 ft 8 kts 118°
2026-05-06 08:27 40.68846 -74.17510 27 ft 16 kts 117°
2026-05-06 08:27 40.68789 -74.17351 27 ft 9 kts 110°
2026-05-06 08:28 40.68836 -74.17281 27 ft 7 kts 27°
2026-05-06 08:28 40.68914 -74.17229 27 ft 14 kts 26°
2026-05-06 08:28 40.69009 -74.17167 27 ft 17 kts 27°
2026-05-06 08:28 40.69148 -74.17079 27 ft 26 kts 26°
2026-05-06 08:29 40.69311 -74.16975 27 ft 24 kts 24°
2026-05-06 08:29 40.69460 -74.16883 27 ft 23 kts 25°
2026-05-06 08:29 40.69588 -74.16801 27 ft 19 kts 26°
2026-05-06 08:29 40.69711 -74.16722 27 ft 19 kts 25°
2026-05-06 08:30 40.69826 -74.16648 27 ft 19 kts 28°
2026-05-06 08:30 40.69952 -74.16574 27 ft 19 kts 27°
2026-05-06 08:30 40.70045 -74.16512 27 ft 12 kts 23°
2026-05-06 08:30 40.70068 -74.16479 27 ft 0 kts 110°
2026-05-06 08:31 40.70067 -74.16475 27 ft 1 kts 109°
2026-05-06 08:31 40.70066 -74.16473 27 ft 0 kts 108°
2026-05-06 08:33 40.70056 -74.16419 27 ft 12 kts 108°
2026-05-06 08:34 40.69969 -74.16396 27 ft 17 kts 202°
2026-05-06 08:34 40.68961 -74.17039 27 ft 142 kts 206°
2026-05-06 08:34 40.67942 -74.17682 263 ft 170 kts 205°
2026-05-06 08:35 40.66857 -74.18281 880 ft 175 kts 199°
2026-05-06 08:35 40.65714 -74.18668 1729 ft 168 kts 196°
2026-05-06 08:35 40.64624 -74.19009 2319 ft 161 kts 198°
2026-05-06 08:35 40.63561 -74.19443 2747 ft 161 kts 210°
2026-05-06 08:36 40.62774 -74.20489 2975 ft 173 kts 244°
2026-05-06 08:36 40.62639 -74.22171 3192 ft 201 kts 278°
2026-05-06 08:36 40.63452 -74.23812 3467 ft 237 kts 313°
2026-05-06 08:36 40.64856 -74.25081 3803 ft 257 kts 318°
2026-05-06 08:37 40.66363 -74.26428 4297 ft 266 kts 318°
2026-05-06 08:37 40.67907 -74.27817 4981 ft 269 kts 319°
2026-05-06 08:37 40.69438 -74.29194 5682 ft 271 kts 319°
2026-05-06 08:37 40.71011 -74.30611 6397 ft 274 kts 319°
2026-05-06 08:38 40.72581 -74.32029 7101 ft 277 kts 319°
2026-05-06 08:38 40.74162 -74.33460 7743 ft 282 kts 319°
2026-05-06 08:38 40.75799 -74.34940 8417 ft 287 kts 319°
2026-05-06 08:38 40.77450 -74.36437 9036 ft 292 kts 319°
2026-05-06 08:39 40.79136 -74.37967 9638 ft 298 kts 319°
2026-05-06 08:39 40.80844 -74.39520 10251 ft 303 kts 319°
2026-05-06 08:39 40.82615 -74.41130 10644 ft 316 kts 319°
2026-05-06 08:39 40.84452 -74.42806 10931 ft 332 kts 319°
2026-05-06 08:40 40.86393 -74.44579 11284 ft 345 kts 320°
2026-05-06 08:40 40.88370 -74.46375 11848 ft 350 kts 320°
2026-05-06 08:40 40.90373 -74.48191 12496 ft 352 kts 319°
2026-05-06 08:40 40.92396 -74.50030 13127 ft 354 kts 319°
2026-05-06 08:41 40.94439 -74.51891 13760 ft 357 kts 319°
2026-05-06 08:41 40.96482 -74.53758 14385 ft 359 kts 319°
2026-05-06 08:41 40.98536 -74.55638 14993 ft 361 kts 319°
2026-05-06 08:41 41.00580 -74.57509 15588 ft 362 kts 319°
2026-05-06 08:42 41.02665 -74.59420 16185 ft 363 kts 319°
2026-05-06 08:42 41.04724 -74.61311 16763 ft 365 kts 319°
2026-05-06 08:42 41.06821 -74.63235 17290 ft 366 kts 320°
2026-05-06 08:42 41.08914 -74.65156 17805 ft 368 kts 319°
2026-05-06 08:43 41.11024 -74.67098 18380 ft 368 kts 318°
2026-05-06 08:43 41.12956 -74.69257 18868 ft 364 kts 309°
2026-05-06 08:43 41.14590 -74.71824 19405 ft 360 kts 300°
2026-05-06 08:43 41.15913 -74.74626 19928 ft 359 kts 295°
2026-05-06 08:44 41.17162 -74.77486 20428 ft 360 kts 295°
2026-05-06 08:44 41.18403 -74.80358 20915 ft 362 kts 295°
2026-05-06 08:44 41.19667 -74.83282 21354 ft 364 kts 295°
2026-05-06 08:44 41.20917 -74.86173 21796 ft 367 kts 295°
2026-05-06 08:45 41.22186 -74.89102 22237 ft 369 kts 295°
2026-05-06 08:45 41.23471 -74.92066 22674 ft 370 kts 295°
2026-05-06 08:45 41.24747 -74.95016 23102 ft 372 kts 295°
2026-05-06 08:45 41.26050 -74.98026 23501 ft 374 kts 295°
2026-05-06 08:46 41.27335 -75.01004 23900 ft 376 kts 295°
2026-05-06 08:46 41.28643 -75.04026 24313 ft 378 kts 295°
2026-05-06 08:46 41.29943 -75.07038 24700 ft 379 kts 295°
2026-05-06 08:46 41.31265 -75.10100 25111 ft 381 kts 295°
2026-05-06 08:47 41.32564 -75.13120 25482 ft 382 kts 295°
2026-05-06 08:47 41.33889 -75.16204 25827 ft 385 kts 295°
2026-05-06 08:47 41.35225 -75.19311 26185 ft 386 kts 295°
2026-05-06 08:47 41.36538 -75.22368 26569 ft 387 kts 295°
2026-05-06 08:48 41.37868 -75.25469 26932 ft 388 kts 295°
2026-05-06 08:48 41.39220 -75.28628 27261 ft 390 kts 295°
2026-05-06 08:48 41.40542 -75.31722 27598 ft 391 kts 295°
2026-05-06 08:48 41.41885 -75.34872 27937 ft 392 kts 294°
2026-05-06 08:49 41.43225 -75.38016 28264 ft 393 kts 295°
2026-05-06 08:49 41.44590 -75.41215 28595 ft 394 kts 294°
2026-05-06 08:49 41.45924 -75.44351 28872 ft 395 kts 294°
2026-05-06 08:49 41.47197 -75.47639 29173 ft 394 kts 291°
2026-05-06 08:50 41.48314 -75.50927 29475 ft 393 kts 288°
2026-05-06 08:50 41.49327 -75.54306 29724 ft 394 kts 287°
2026-05-06 08:50 41.50320 -75.57734 29984 ft 395 kts 287°
2026-05-06 08:50 41.51314 -75.61186 30247 ft 396 kts 287°
2026-05-06 08:51 41.52288 -75.64585 30521 ft 396 kts 287°
2026-05-06 08:51 41.53266 -75.68000 30868 ft 395 kts 286°
2026-05-06 08:51 41.54253 -75.71448 31296 ft 392 kts 287°
2026-05-06 08:51 41.55205 -75.74773 31682 ft 389 kts 287°
2026-05-06 08:52 41.56162 -75.78123 32107 ft 385 kts 287°
2026-05-06 08:52 41.57111 -75.81460 32496 ft 382 kts 287°
2026-05-06 08:52 41.58056 -75.84775 32869 ft 379 kts 287°
2026-05-06 08:52 41.58984 -75.88032 33220 ft 376 kts 287°
2026-05-06 08:53 41.59904 -75.91265 33542 ft 375 kts 287°
2026-05-06 08:53 41.60817 -75.94482 33880 ft 372 kts 287°
2026-05-06 08:53 41.61737 -75.97732 34188 ft 370 kts 287°
2026-05-06 08:53 41.62641 -76.00916 34463 ft 369 kts 287°
2026-05-06 08:54 41.63538 -76.04111 34693 ft 369 kts 287°
2026-05-06 08:54 41.64444 -76.07323 34825 ft 370 kts 287°
2026-05-06 08:54 41.65351 -76.10550 34827 ft 369 kts 287°
2026-05-06 08:55 41.67149 -76.16950 34854 ft 370 kts 287°
2026-05-06 08:55 41.68958 -76.23398 34820 ft 371 kts 287°
2026-05-06 08:56 41.70769 -76.29846 34852 ft 371 kts 287°
2026-05-06 08:56 41.72574 -76.36308 34837 ft 371 kts 286°
2026-05-06 08:57 41.74364 -76.42748 34818 ft 371 kts 287°
2026-05-06 08:57 41.76149 -76.49172 34828 ft 369 kts 286°
2026-05-06 08:58 41.77937 -76.55626 34816 ft 369 kts 286°
2026-05-06 08:58 41.79719 -76.62064 34829 ft 368 kts 286°
2026-05-06 08:59 41.81492 -76.68490 34825 ft 369 kts 285°
2026-05-06 08:59 41.83264 -76.74928 34808 ft 369 kts 285°
2026-05-06 09:00 41.85028 -76.81374 34805 ft 369 kts 285°
2026-05-06 09:00 41.86782 -76.87788 34823 ft 368 kts 285°
2026-05-06 09:01 41.88541 -76.94226 34819 ft 369 kts 285°
2026-05-06 09:01 41.90295 -77.00682 34832 ft 369 kts 285°
2026-05-06 09:02 41.92048 -77.07152 34804 ft 370 kts 285°
2026-05-06 09:02 41.93796 -77.13628 34817 ft 370 kts 285°
2026-05-06 09:03 41.95544 -77.20118 34810 ft 370 kts 285°
2026-05-06 09:03 41.97274 -77.26556 34845 ft 369 kts 284°
2026-05-06 09:04 41.99013 -77.33058 34817 ft 370 kts 284°
2026-05-06 09:04 42.00782 -77.39558 34815 ft 372 kts 285°
2026-05-06 09:05 42.02899 -77.45907 34822 ft 374 kts 289°
2026-05-06 09:05 42.05134 -77.52217 34808 ft 375 kts 289°
2026-05-06 09:06 42.07363 -77.58515 34811 ft 376 kts 288°
2026-05-06 09:06 42.09605 -77.64877 34806 ft 376 kts 289°
2026-05-06 09:07 42.11853 -77.71258 34803 ft 375 kts 288°
2026-05-06 09:07 42.14079 -77.77580 34818 ft 375 kts 288°
2026-05-06 09:08 42.16302 -77.83926 34801 ft 377 kts 287°
2026-05-06 09:08 42.18546 -77.90344 35094 ft 377 kts 288°
2026-05-06 09:08 42.19660 -77.93527 35374 ft 375 kts 288°
2026-05-06 09:09 42.20751 -77.96653 35415 ft 373 kts 288°
2026-05-06 09:09 42.21855 -77.99818 35524 ft 375 kts 288°
2026-05-06 09:09 42.22977 -78.03040 35865 ft 376 kts 288°
2026-05-06 09:09 42.24091 -78.06242 35582 ft 375 kts 288°
2026-05-06 09:10 42.25100 -78.09138 35675 ft 376 kts 288°
2026-05-06 09:11 42.27101 -78.14914 35750 ft 376 kts 288°
2026-05-06 09:11 42.29305 -78.21281 35789 ft 375 kts 288°
2026-05-06 09:12 42.31484 -78.27596 35785 ft 374 kts 288°
2026-05-06 09:12 42.33671 -78.33944 35796 ft 373 kts 288°
2026-05-06 09:13 42.35858 -78.40307 35792 ft 375 kts 288°
2026-05-06 09:13 42.38050 -78.46709 35796 ft 375 kts 288°
2026-05-06 09:14 42.40210 -78.53033 35797 ft 372 kts 288°
2026-05-06 09:14 42.42379 -78.59387 35796 ft 373 kts 288°
2026-05-06 09:15 42.44397 -78.65833 35795 ft 371 kts 284°
2026-05-06 09:15 42.45902 -78.72452 35800 ft 365 kts 278°
2026-05-06 09:16 42.46889 -78.79163 35794 ft 364 kts 274°
2026-05-06 09:16 42.47368 -78.85938 35800 ft 362 kts 269°
2026-05-06 09:17 42.47609 -78.92723 35795 ft 362 kts 270°
2026-05-06 09:17 42.47848 -78.99469 35797 ft 361 kts 269°
2026-05-06 09:18 42.48065 -79.06271 35797 ft 361 kts 269°
2026-05-06 09:18 42.48281 -79.13049 35821 ft 361 kts 269°
2026-05-06 09:19 42.48495 -79.19827 35812 ft 361 kts 269°
2026-05-06 09:19 42.48698 -79.26585 35822 ft 361 kts 269°
2026-05-06 09:20 42.48899 -79.33363 35818 ft 361 kts 269°
2026-05-06 09:20 42.49092 -79.40128 35808 ft 361 kts 269°
2026-05-06 09:21 42.49285 -79.46899 35812 ft 362 kts 269°
2026-05-06 09:21 42.49475 -79.53696 35798 ft 362 kts 269°
2026-05-06 09:22 42.49660 -79.60474 35818 ft 362 kts 269°
2026-05-06 09:22 42.49842 -79.67267 35819 ft 363 kts 268°
2026-05-06 09:23 42.50014 -79.74061 35807 ft 362 kts 268°
2026-05-06 09:23 42.50188 -79.80876 35824 ft 362 kts 268°
2026-05-06 09:24 42.50358 -79.87701 35827 ft 363 kts 268°
2026-05-06 09:24 42.50522 -79.94556 35815 ft 364 kts 269°
2026-05-06 09:25 42.50686 -80.01390 36014 ft 364 kts 268°
2026-05-06 09:25 42.50764 -80.04785 35756 ft 362 kts 268°
2026-05-06 09:25 42.50841 -80.08198 35791 ft 362 kts 268°
2026-05-06 09:26 42.50998 -80.14971 35826 ft 364 kts 268°
2026-05-06 09:26 42.51146 -80.21802 35827 ft 363 kts 268°
2026-05-06 09:27 42.51283 -80.28618 35822 ft 362 kts 268°
2026-05-06 09:27 42.51425 -80.35391 35834 ft 362 kts 268°
2026-05-06 09:28 42.51563 -80.42192 35840 ft 362 kts 268°
2026-05-06 09:28 42.51691 -80.48981 35835 ft 362 kts 268°
2026-05-06 09:29 42.51818 -80.55800 35838 ft 361 kts 268°
2026-05-06 09:29 42.51940 -80.62552 35844 ft 361 kts 268°
2026-05-06 09:30 42.52020 -80.69343 35819 ft 360 kts 268°
2026-05-06 09:30 42.52095 -80.76112 35834 ft 360 kts 266°
2026-05-06 09:31 42.52156 -80.82841 35843 ft 360 kts 267°
2026-05-06 09:31 42.52219 -80.89608 35763 ft 359 kts 267°
2026-05-06 09:31 42.52250 -80.92944 35486 ft 359 kts 266°
2026-05-06 09:32 42.52280 -80.96330 35075 ft 358 kts 266°
2026-05-06 09:32 42.52309 -80.99674 34481 ft 360 kts 266°
2026-05-06 09:32 42.52334 -81.03065 33721 ft 363 kts 265°
2026-05-06 09:32 42.52359 -81.06468 32979 ft 364 kts 265°
2026-05-06 09:33 42.52381 -81.09867 32223 ft 366 kts 265°
2026-05-06 09:33 42.52403 -81.13316 31377 ft 370 kts 265°
2026-05-06 09:33 42.52426 -81.16808 30528 ft 374 kts 265°
2026-05-06 09:33 42.52445 -81.20303 29806 ft 374 kts 265°
2026-05-06 09:34 42.52464 -81.23779 29303 ft 369 kts 265°
2026-05-06 09:34 42.52486 -81.27258 28805 ft 365 kts 266°
2026-05-06 09:34 42.52504 -81.30666 28284 ft 361 kts 265°
2026-05-06 09:34 42.52519 -81.34010 27803 ft 356 kts 265°
2026-05-06 09:35 42.52448 -81.37302 27473 ft 350 kts 263°
2026-05-06 09:35 42.52257 -81.40596 27061 ft 349 kts 261°
2026-05-06 09:35 42.52016 -81.43864 26582 ft 346 kts 261°
2026-05-06 09:35 42.51783 -81.47079 26126 ft 342 kts 261°
2026-05-06 09:36 42.51552 -81.50251 25664 ft 339 kts 261°
2026-05-06 09:36 42.51316 -81.53403 25215 ft 335 kts 261°
2026-05-06 09:36 42.51083 -81.56520 24772 ft 332 kts 261°
2026-05-06 09:36 42.50851 -81.59581 24344 ft 328 kts 261°
2026-05-06 09:37 42.50621 -81.62642 23921 ft 325 kts 262°
2026-05-06 09:37 42.50389 -81.65665 23494 ft 321 kts 261°
2026-05-06 09:37 42.50161 -81.68675 23082 ft 319 kts 261°
2026-05-06 09:37 42.49936 -81.71603 22679 ft 316 kts 261°
2026-05-06 09:38 42.49708 -81.74544 22270 ft 314 kts 261°
2026-05-06 09:38 42.49480 -81.77492 21847 ft 311 kts 262°
2026-05-06 09:38 42.49260 -81.80369 21439 ft 309 kts 262°
2026-05-06 09:38 42.49036 -81.83255 21030 ft 308 kts 262°
2026-05-06 09:39 42.48811 -81.86108 20579 ft 307 kts 262°
2026-05-06 09:39 42.48589 -81.88966 20128 ft 307 kts 262°
2026-05-06 09:39 42.48364 -81.91824 19673 ft 306 kts 262°
2026-05-06 09:39 42.48140 -81.94690 19229 ft 306 kts 263°
2026-05-06 09:40 42.47913 -81.97546 18770 ft 306 kts 263°
2026-05-06 09:40 42.47688 -82.00403 18307 ft 305 kts 263°
2026-05-06 09:40 42.47238 -82.06091 17386 ft 306 kts 263°
2026-05-06 09:41 42.47014 -82.08929 16918 ft 307 kts 263°
2026-05-06 09:41 42.46784 -82.11800 16432 ft 308 kts 263°
2026-05-06 09:41 42.46554 -82.14666 15942 ft 308 kts 262°
2026-05-06 09:41 42.46321 -82.17540 15469 ft 308 kts 262°
2026-05-06 09:42 42.46089 -82.20402 15008 ft 308 kts 262°
2026-05-06 09:42 42.45856 -82.23259 14558 ft 307 kts 262°
2026-05-06 09:42 42.45620 -82.26150 14099 ft 307 kts 262°
2026-05-06 09:42 42.45386 -82.28988 13641 ft 306 kts 262°
2026-05-06 09:43 42.45151 -82.31831 13200 ft 306 kts 261°
2026-05-06 09:43 42.44841 -82.34668 12749 ft 305 kts 259°
2026-05-06 09:43 42.44503 -82.37485 12303 ft 304 kts 259°
2026-05-06 09:43 42.44167 -82.40276 11862 ft 303 kts 260°
2026-05-06 09:44 42.43827 -82.43096 11430 ft 301 kts 260°
2026-05-06 09:44 42.43491 -82.45875 10988 ft 301 kts 260°
2026-05-06 09:44 42.43153 -82.48656 10559 ft 299 kts 260°
2026-05-06 09:44 42.42821 -82.51408 10287 ft 292 kts 259°
2026-05-06 09:45 42.42501 -82.54045 10140 ft 282 kts 259°
2026-05-06 09:45 42.42187 -82.56605 10033 ft 270 kts 259°
2026-05-06 09:45 42.41884 -82.59084 9796 ft 265 kts 260°
2026-05-06 09:45 42.41581 -82.61526 9406 ft 265 kts 260°
2026-05-06 09:46 42.41280 -82.63978 9028 ft 265 kts 261°
2026-05-06 09:46 42.40978 -82.66436 8642 ft 265 kts 260°
2026-05-06 09:46 42.40675 -82.68884 8283 ft 264 kts 261°
2026-05-06 09:46 42.40371 -82.71340 7904 ft 264 kts 261°
2026-05-06 09:47 42.40070 -82.73776 7555 ft 263 kts 262°
2026-05-06 09:47 42.39786 -82.76208 7202 ft 262 kts 266°
2026-05-06 09:47 42.39864 -82.78610 6972 ft 257 kts 275°
2026-05-06 09:47 42.39745 -82.81042 6842 ft 259 kts 261°
2026-05-06 09:48 42.39368 -82.83405 6720 ft 260 kts 259°
2026-05-06 09:48 42.38988 -82.85794 6592 ft 260 kts 261°
2026-05-06 09:48 42.38648 -82.88180 6463 ft 260 kts 262°
2026-05-06 09:48 42.38337 -82.90580 6328 ft 259 kts 263°
2026-05-06 09:49 42.38045 -82.93005 6171 ft 259 kts 263°
2026-05-06 09:49 42.37770 -82.95374 5999 ft 258 kts 264°
2026-05-06 09:49 42.35270 -83.17591 4288 ft 257 kts 264°
2026-05-06 09:49 42.34932 -83.20725 3917 ft 252 kts 265°
2026-05-06 09:50 42.34685 -83.23057 3560 ft 246 kts 265°
2026-05-06 09:50 42.34437 -83.25299 3253 ft 239 kts 262°
2026-05-06 09:50 42.33750 -83.27278 3001 ft 236 kts 229°
2026-05-06 09:50 42.32444 -83.28494 2950 ft 226 kts 208°
2026-05-06 09:51 42.30999 -83.29363 2768 ft 224 kts 206°
2026-05-06 09:51 42.29597 -83.30229 2498 ft 217 kts 208°
2026-05-06 09:51 42.28301 -83.31155 2154 ft 210 kts 211°
2026-05-06 09:51 42.27074 -83.32080 1825 ft 195 kts 211°
2026-05-06 09:52 42.25907 -83.32948 1384 ft 188 kts 210°
2026-05-06 09:52 42.24773 -83.33786 1037 ft 174 kts 210°
2026-05-06 09:52 42.23763 -83.34531 824 ft 159 kts 209°
2026-05-06 09:52 42.22829 -83.35216 652 ft 144 kts 208°
2026-05-06 09:53 42.22099 -83.35757 642 ft 81 kts 208°
2026-05-06 09:53 42.21768 -83.35984 642 ft 21 kts 198°
2026-05-06 09:53 42.21714 -83.35895 642 ft 16 kts 65°
2026-05-06 09:53 42.21798 -83.35809 642 ft 14 kts 25°
2026-05-06 09:54 42.21860 -83.35754 642 ft 9 kts 25°
2026-05-06 09:54 42.21926 -83.35712 642 ft 17 kts 28°
2026-05-06 09:54 42.22071 -83.35604 642 ft 24 kts 28°
2026-05-06 09:54 42.22205 -83.35504 642 ft 11 kts 36°
2026-05-06 09:55 42.22231 -83.35413 642 ft 11 kts 82°
2026-05-06 09:55 42.22273 -83.35364 642 ft 6 kts 22°
2026-05-06 09:55 42.22329 -83.35315 642 ft 10 kts 40°
2026-05-06 09:55 42.22384 -83.35249 642 ft 10 kts 49°
2026-05-06 09:56 42.22425 -83.35159 642 ft 11 kts 66°
2026-05-06 09:56 42.22442 -83.35092 642 ft 4 kts 91°
2026-05-06 09:56 42.22428 -83.35062 642 ft 2 kts 134°
2026-05-06 09:56 42.22414 -83.35040 642 ft 2 kts 129°